Regional Weather Roundup
Issued by NWS

Home | Current Version | Previous Version | Text Only | Print | Product List | Glossary On
Versions: 1 2 3 4 5 6 7 8 9 10 11 12 13 14 15 16 17 18 19 20 21 22 23 24 25 26 27
000
ASUS45 KBOI 250110
RWRID

IDAHO REGIONAL WEATHER ROUNDUP
NATIONAL WEATHER SERVICE BOISE ID
700 PM MDT TUE MAY 24 2022

NOTE: "FAIR" INDICATES FEW OR NO CLOUDS BELOW 12000 FEET
WITH NO SIGNIFICANT WEATHER AND/OR OBSTRUCTIONS TO VISIBILITY

IDZ012-014-250200-
SOUTHWEST IDAHO


CITY           SKY/WX    TMP DP  RH WIND       PRES   REMARKS
BOISE          MOSUNNY   71  26  18 N9        30.00F
CALDWELL       MOSUNNY   72  32  23 N8        29.99F
MOUNTAIN HOME  SUNNY     71  19  14 N22       29.96F
$$

IDZ016-017-250200-
SOUTHCENTRAL IDAHO


CITY           SKY/WX    TMP DP  RH WIND       PRES   REMARKS
BURLEY         SUNNY     65  21  18 W13G25    30.00S
JEROME         LGT RAIN  68  17  14 W22G32    30.00S
TWIN FALLS     SUNNY     67  19  16 W18G29    30.02S
$$

IDZ019>023-250200-
SOUTHEAST IDAHO


CITY           SKY/WX    TMP DP  RH WIND       PRES   REMARKS
IDAHO FALLS    SUNNY     65  24  21 N3        30.02S
POCATELLO      MOSUNNY   66  26  22 SW13      30.00F
REXBURG        MOSUNNY   63  28  26 E8        30.01S
$$

IDZ006-010-011-018-031-032-250200-
CENTRAL IDAHO MOUNTAINS


CITY           SKY/WX    TMP DP  RH WIND       PRES   REMARKS
MCCALL         PTSUNNY   60  24  25 W7        30.02F
HAILEY         SUNNY     66  25  20 S6        29.99F
STANLEY          N/A     57  18  21 VRB7      30.08S
SALMON         MOSUNNY   63  29  27 NW7       30.01F
CHALLIS        MOSUNNY   64  20  18 CALM      29.99S
$$

IDZ002-004-006-007-026-250200-
NORTHERN IDAHO


CITY           SKY/WX    TMP DP  RH WIND       PRES   REMARKS
LEWISTON       PTSUNNY   71  37  28 VRB3      29.96F
LOWELL           N/A     64  45  49 CALM      29.97F
COEUR D`ALENE  PTSUNNY   61  42  49 SW10      30.01S
MULLAN PASS    PTSUNNY   44  31  60 VRB3      30.06S
$$



USA.gov is the U.S. government's official web portal to all federal, state and local government web resources and services.